Dewpoint
16 17 16 16 13 12 9 8 6 7 7 9 9 8 7 7 7 9 14 16 17 17 17 13 7 8 10 14 14 14 14 14 14 14 14 14 13 14 13 7 5 9 10 11 11 12 13 13 13
18 17 16 13 13 10 9 8 7 7 9 10 9 8 7 11 12 14 16 17 16 16 16 16 7 8 12 15 14 14 14 13 14 14 14 14 14 13 11 7 6 8 10 13 13 12 12 12 13
18 18 13 8 9 9 9 8 8 9 8 7 8 10 10 11 13 14 16 16 16 16 16 17 8 9 11 14 14 13 12 10 10 11 12 13 13 13 8 7 9 10 12 13 13 14 13 10 11
17 15 11 9 8 7 8 8 7 8 8 8 8 11 13 16 12 14 16 17 16 15 16 15 8 7 10 10 8 8 8 8 9 10 10 10 11 9 8 9 10 11 12 13 14 14 14 13 12
14 11 9 8 7 5 6 7 8 8 7 8 8 11 14 17 17 17 17 17 17 16 16 16 10 8 5 6 7 7 7 7 8 9 9 8 7 8 9 10 12 11 12 13 14 14 13 14 12
10 7 7 8 6 5 5 5 7 8 8 8 8 9 15 17 17 17 17 17 17 16 17 17 13 11 9 8 8 8 8 9 9 9 8 7 9 11 10 11 12 12 12 13 14 14 13 13 12
8 8 8 7 6 6 6 5 6 7 8 9 10 9 15 17 17 17 18 18 18 17 17 17 16 12 12 12 12 11 10 10 10 9 9 9 10 11 13 11 12 12 12 13 14 14 13 13 13
8 8 8 8 7 6 6 6 7 7 8 11 10 10 13 17 17 17 18 19 18 18 18 18 17 17 15 14 13 13 13 12 12 11 10 8 11 13 13 12 13 13 13 14 14 14 13 13 13
8 8 8 7 7 6 3 4 8 9 10 11 12 12 13 17 17 17 18 18 18 17 17 17 18 17 16 15 14 14 14 14 14 14 13 11 15 15 16 14 13 12 13 13 13 14 13 13 13
6 6 7 6 6 5 4 4 6 9 10 11 14 16 16 16 17 16 17 17 18 18 18 17 18 17 17 16 15 15 14 14 14 14 9 13 15 14 16 15 12 12 13 13 12 13 13 13 16
4 6 6 5 5 5 4 3 4 7 9 9 11 15 16 16 16 15 15 16 17 17 17 17 17 17 17 17 17 15 14 14 14 13 10 11 14 14 15 15 15 13 13 16 14 15 16 15 15
5 5 6 5 4 3 2 2 3 6 6 8 10 14 15 15 15 14 15 15 16 16 16 12 13 13 15 17 16 16 15 13 14 14 10 14 14 12 12 14 16 13 14 16 16 16 16 16 17
6 5 5 4 3 2 2 2 4 6 7 8 11 14 14 15 14 14 14 15 16 16 13 11 11 10 10 13 16 16 16 15 14 14 13 13 13 12 10 12 15 13 14 16 16 16 17 17 17
6 4 4 3 1 2 3 2 5 7 7 10 13 13 12 13 13 13 15 15 16 16 14 12 12 11 12 12 15 16 16 15 15 14 13 13 13 12 11 10 14 13 14 15 17 16 17 17 16
4 5 3 2 0 1 3 2 6 9 11 11 12 13 11 12 12 13 14 15 16 16 14 13 14 13 13 12 13 14 15 15 15 15 13 13 12 12 10 10 11 14 14 14 15 15 16 17 16
4 3 3 1 -0 3 2 2 4 10 11 11 12 12 12 13 14 13 14 15 16 16 11 12 13 13 12 11 12 14 15 15 15 14 14 12 13 13 10 11 9 10 13 13 13 16 16 16 16
5 5 3 2 0 -0 2 4 7 9 10 10 11 12 13 13 14 15 15 15 15 14 9 10 10 11 11 11 13 14 14 13 14 14 14 13 13 14 14 13 11 12 13 13 14 15 15 16 16
3 5 2 3 1 -0 3 5 3 8 9 9 10 12 13 13 13 14 15 15 16 15 10 10 10 11 12 12 12 13 14 14 14 14 14 14 13 14 13 13 12 12 14 13 14 14 15 14 15
5 5 3 2 -0 2 4 6 6 6 7 8 10 11 12 12 13 15 16 16 16 15 11 9 11 12 13 13 14 14 14 13 14 11 11 14 14 14 14 13 13 13 12 12 13 15 15 15 14
4 5 3 1 0 -1 -1 1 4 7 7 7 9 9 11 11 12 14 16 17 17 16 14 12 12 15 13 13 14 14 12 13 13 14 12 12 13 13 14 14 13 13 12 13 14 14 14 15 15
3 3 1 2 -1 -3 4 2 3 6 8 9 9 9 9 9 10 14 15 16 16 17 17 16 15 14 14 15 13 12 13 13 13 13 13 13 12 12 13 14 14 13 13 13 13 14 14 14 15
2 -1 0 1 -2 -0 2 0 3 5 6 7 8 8 7 8 10 13 15 16 16 17 17 17 16 15 14 13 13 13 13 13 13 13 12 13 12 13 13 13 14 13 13 13 13 13 14 14 15
0 -2 -4 -4 -2 -0 2 1 -2 7 5 5 6 7 8 12 13 13 15 16 16 16 17 17 14 13 13 13 12 11 11 12 12 12 13 13 13 12 13 13 13 13 13 12 14 12 14 14 13
-3 -4 -1 1 -1 3 3 3 -2 0 6 7 7 9 11 13 14 15 15 16 16 16 16 16 16 15 13 13 12 13 13 13 12 13 13 13 12 13 13 14 13 13 13 13 13 13 14 13 14
-3 -2 2 3 3 1 8 6 0 5 9 9 9 10 11 13 14 15 15 16 16 16 16 14 15 15 13 13 12 13 13 13 13 13 14 13 12 13 13 12 13 13 12 12 13 13 13 13 14
-3 -3 -0 3 1 1 9 3 2 8 8 9 9 9 13 13 14 15 15 15 15 15 15 15 15 15 15 13 11 12 12 13 13 14 14 13 13 13 12 13 13 12 11 12 13 13 12 12 11
-2 -0 -3 0 -1 -0 -2 2 5 8 9 11 9 10 12 13 14 14 14 13 14 14 14 15 15 15 14 12 11 12 12 12 13 14 13 13 13 13 14 14 13 13 13 13 13 12 12 11 10
-3 -4 0 -1 2 4 1 4 3 11 10 10 11 10 13 14 14 14 14 13 13 14 15 15 15 15 14 13 11 12 13 13 13 13 13 13 13 13 13 13 14 14 13 13 13 12 12 11 11
-2 -1 -2 -1 3 2 3 4 8 8 9 9 12 10 13 14 14 15 13 14 14 14 14 15 15 15 15 15 14 13 12 12 13 13 13 12 12 12 12 13 13 13 13 13 13 12 12 12 11
-5 -4 -2 0 4 2 4 2 7 9 9 8 11 13 13 14 15 15 14 14 14 14 14 14 14 14 15 15 14 13 12 11 12 12 12 12 11 11 12 12 12 12 12 13 12 12 12 11 9
Wind_Speed
3 5 5 4 5 6 7 7 1 7 6 4 3 6 10 7 8 5 7 11 17 19 19 21 19 21 20 20 18 15 14 15 14 14 13 12 12 11 8 9 9 9 8 6 7 9 9 8 8
4 2 2 5 6 5 7 3 6 6 6 5 4 2 4 10 9 9 14 12 20 18 18 18 20 21 21 20 17 15 14 13 14 14 14 12 12 12 9 9 8 7 7 6 6 6 7 8 9
3 3 6 5 4 7 7 5 6 8 8 3 3 4 3 7 7 9 9 18 19 19 18 19 20 21 21 20 17 16 15 15 15 14 14 13 12 11 9 9 8 6 5 5 5 5 6 8 10
2 4 6 6 9 6 4 4 5 10 4 3 3 6 7 6 5 4 15 17 19 18 17 18 19 19 20 19 17 15 15 15 14 14 14 13 12 11 10 8 7 5 5 5 5 5 6 8 8
4 5 5 5 6 3 0 2 7 7 4 5 2 6 6 5 7 9 15 17 17 18 17 17 18 18 18 17 16 15 15 14 13 14 14 12 11 11 10 9 7 6 5 5 6 5 5 7 7
6 4 6 4 8 3 1 4 5 6 1 2 2 5 6 8 9 10 13 15 17 18 16 16 17 15 15 15 15 15 16 15 15 14 13 12 11 10 9 9 7 6 6 6 6 5 6 8 8
9 4 6 4 6 7 6 4 4 3 3 3 1 2 6 9 11 12 12 15 17 18 18 16 15 16 16 16 15 16 17 16 14 13 12 11 12 10 9 8 7 7 7 7 6 6 7 7 9
7 4 2 1 3 9 9 3 4 4 3 3 3 3 6 13 13 13 13 13 15 16 16 14 14 14 16 17 17 17 16 14 12 12 11 12 11 10 10 9 8 8 8 7 7 7 7 7 9
4 5 2 4 4 5 8 6 2 2 6 5 3 3 8 18 16 14 13 13 14 15 15 15 15 15 17 17 19 17 16 13 11 11 8 11 10 10 9 10 10 9 9 8 7 7 8 7 9
8 6 5 4 5 7 7 7 4 6 7 6 7 8 15 18 16 15 14 14 13 13 14 12 13 13 14 13 15 17 18 18 18 15 13 18 14 14 10 11 10 9 10 9 8 8 9 7 7
5 5 2 0 5 8 10 8 4 9 6 9 12 14 17 18 16 14 13 13 13 13 11 12 11 11 11 13 11 15 17 18 20 21 5 21 20 18 10 10 9 10 11 7 7 8 7 8 10
9 6 4 6 9 10 11 10 6 8 11 4 5 17 20 20 17 15 14 14 13 12 11 10 11 11 11 10 11 12 14 19 21 21 12 20 20 22 14 10 10 13 12 11 10 9 11 9 9
11 7 9 8 11 12 10 9 8 7 4 3 8 17 18 17 16 15 14 13 13 11 9 8 9 9 10 12 11 13 15 16 19 19 19 23 21 18 22 16 12 13 14 11 13 14 9 8 8
3 8 11 11 6 2 8 10 4 2 5 7 11 16 16 16 17 16 16 15 14 12 10 8 9 10 10 9 12 12 14 15 18 19 19 23 24 22 22 21 16 14 15 13 11 11 9 8 8
8 10 9 6 4 4 11 13 4 2 7 10 13 16 16 16 17 17 16 15 14 12 11 10 10 12 11 10 10 11 12 14 15 17 21 21 21 24 25 27 21 15 17 16 14 12 10 8 8
8 9 10 8 4 1 8 6 8 5 9 11 12 15 17 17 17 16 14 14 14 13 11 11 12 12 11 11 10 10 12 13 16 22 19 23 24 26 21 23 27 20 20 18 16 12 11 10 9
9 10 3 2 1 8 5 10 7 4 8 11 12 12 15 17 17 16 15 14 15 15 14 15 14 11 10 11 9 9 12 15 15 20 21 25 25 24 24 22 25 24 22 21 19 13 13 12 10
8 8 6 4 2 9 9 8 8 6 7 11 12 10 13 16 18 16 17 16 16 17 16 15 16 15 12 12 12 11 12 14 17 19 20 25 28 26 28 26 29 28 23 23 21 18 15 16 13
6 7 9 4 5 8 5 6 1 4 9 10 11 11 12 14 14 14 16 18 17 17 18 16 15 12 12 13 14 14 15 16 17 23 25 23 27 27 25 28 29 29 29 26 22 18 17 14 12
11 11 11 5 4 8 8 9 4 4 8 10 10 11 12 12 14 14 15 17 16 15 16 17 14 11 15 14 15 17 19 17 14 16 23 26 25 27 26 26 29 30 29 27 26 22 18 16 12
14 12 9 7 8 8 8 11 6 4 7 7 9 10 10 11 11 14 13 15 13 13 12 12 10 15 14 15 16 20 18 15 15 16 18 23 27 27 30 25 27 29 28 27 27 24 21 15 10
13 11 9 13 8 6 3 7 7 3 6 10 12 12 11 8 7 11 11 11 11 10 9 8 10 12 12 14 17 17 16 15 15 17 14 19 23 26 29 28 27 26 29 27 28 24 20 16 9
12 3 6 6 9 7 10 7 5 5 8 6 10 9 6 2 6 12 12 10 9 9 7 7 9 11 11 14 11 14 16 15 15 15 15 16 19 21 26 27 26 28 27 25 28 26 20 18 11
7 8 6 7 9 10 4 6 8 4 2 1 6 6 5 6 10 12 12 11 9 8 6 5 5 6 9 9 12 11 10 10 10 11 11 15 16 18 22 24 26 27 28 28 27 24 20 16 12
13 12 8 9 8 9 4 5 9 2 4 2 5 7 5 9 12 14 13 11 9 6 4 3 3 4 3 6 7 3 6 9 11 9 12 12 14 15 18 19 22 27 27 25 24 22 19 15 12
18 14 10 6 9 6 4 6 1 2 3 6 9 8 8 11 12 10 11 9 6 3 0 0 2 2 1 2 6 10 5 7 7 4 6 8 10 13 13 16 20 24 25 25 24 22 18 12 11
13 14 16 11 6 8 9 5 8 4 5 6 8 9 9 10 11 10 8 7 6 2 1 1 2 1 2 5 7 8 8 10 1 8 8 8 11 12 13 12 17 18 23 24 25 26 16 12 10
9 14 10 9 14 8 6 5 8 8 9 8 7 9 9 10 12 11 8 8 6 2 1 1 2 2 3 4 5 6 7 7 7 8 10 11 12 11 14 13 12 17 21 22 23 23 14 9 10
10 11 10 8 4 9 9 5 5 6 8 8 5 7 10 12 12 10 7 6 4 1 1 1 1 3 3 2 2 3 6 11 11 9 10 10 10 10 12 12 11 11 12 23 21 15 15 14 13
18 19 18 11 13 10 9 6 6 5 6 6 6 6 8 13 13 9 7 5 2 0 1 2 2 3 4 3 4 3 6 13 8 6 9 10 8 8 9 11 10 8 10 17 14 14 13 12 10
Wind_Direction
117 104 151 204 231 238 97 98 77 100 89 40 71 17 45 26 8 29 143 155 156 163 171 172 172 176 176 175 174 175 173 178 182 184 188 186 178 177 168 155 157 156 158 154 154 159 163 165 163
147 125 187 247 253 141 93 100 104 67 95 108 104 117 48 73 54 106 140 154 155 162 169 171 171 178 181 182 182 185 183 187 188 190 192 192 186 181 181 168 163 170 161 156 159 168 167 179 176
190 253 269 292 262 61 92 90 113 119 130 122 106 34 28 76 91 123 157 153 159 163 168 183 176 181 185 188 189 192 193 191 189 190 193 191 189 189 185 179 167 170 168 168 163 167 161 167 170
308 261 237 260 78 82 37 121 145 153 156 167 106 96 91 82 121 129 158 160 165 165 169 196 183 185 188 189 191 196 196 194 191 189 191 191 193 195 188 187 170 173 179 179 169 163 164 166 175
290 251 240 178 104 81 1 349 201 201 65 141 202 101 89 96 108 131 159 163 171 170 175 195 186 190 193 194 194 196 196 199 198 196 192 194 196 199 193 192 180 183 183 182 165 154 165 170 174
257 269 223 210 88 68 33 263 242 233 156 112 174 118 93 134 122 134 157 169 174 176 184 191 189 191 194 200 200 200 197 198 201 199 194 193 197 197 200 201 194 190 195 184 172 161 161 169 173
272 278 11 45 97 70 32 341 245 278 231 232 125 74 124 149 144 139 154 164 173 179 180 192 187 190 201 208 209 210 208 203 201 198 201 198 199 202 207 209 205 190 196 186 184 163 165 165 171
277 269 167 111 55 57 62 79 338 260 146 167 196 129 148 168 150 144 155 167 170 178 184 188 191 197 207 210 211 215 214 213 209 200 202 212 207 210 221 212 206 192 197 194 192 171 173 168 172
259 236 163 72 14 11 35 6 70 201 162 187 169 91 128 154 150 147 154 164 170 179 187 196 201 206 212 210 213 215 215 212 209 202 193 225 218 219 233 214 214 203 202 200 201 183 180 172 171
243 261 62 5 8 347 343 338 327 218 185 178 150 121 138 150 156 160 167 176 180 184 186 191 201 202 209 213 221 215 218 214 207 207 245 230 220 222 206 230 216 211 204 200 198 192 186 160 182
196 273 24 56 352 329 320 299 252 248 216 226 198 163 157 160 165 169 173 182 187 190 193 194 196 202 199 210 210 228 220 218 218 217 18 226 217 216 205 220 222 213 206 195 197 193 173 191 192
246 237 271 299 315 307 308 315 290 252 274 300 198 168 166 168 172 176 177 181 184 187 186 191 192 198 200 210 229 222 237 226 226 226 233 195 211 213 210 217 224 223 209 183 195 192 194 195 194
235 257 290 287 298 309 295 282 299 286 229 172 163 165 168 170 175 177 180 184 186 193 200 206 205 206 211 222 227 227 222 228 227 231 220 215 210 208 204 228 224 227 222 200 194 200 189 193 189
115 274 283 286 334 310 298 314 270 91 198 180 165 168 168 177 179 179 187 190 194 196 205 219 225 226 230 229 227 231 233 235 224 222 221 216 221 214 207 218 228 229 223 211 197 210 192 188 194
256 269 268 245 328 8 322 251 234 130 167 172 169 173 169 179 185 190 192 194 194 200 207 224 228 236 252 257 238 236 234 235 228 232 229 229 226 213 205 207 232 231 223 221 203 204 195 195 192
248 252 262 110 292 121 327 293 83 150 167 173 174 176 178 184 192 196 197 199 201 199 214 229 235 241 249 258 247 229 234 235 239 227 225 227 224 218 214 205 211 226 232 223 215 202 208 209 201
203 252 218 192 285 330 327 323 71 173 191 193 189 184 189 196 203 205 202 205 209 209 218 224 226 242 249 255 247 240 240 242 234 246 230 223 224 220 215 211 214 222 229 223 219 205 212 213 209
243 216 189 262 350 317 289 267 240 193 215 206 206 199 202 208 214 214 209 211 215 215 221 223 227 234 246 248 256 258 263 249 243 237 239 229 224 223 223 218 218 220 220 220 217 210 212 216 206
280 262 259 259 319 297 271 281 259 213 221 211 213 212 222 223 218 216 213 211 215 223 227 234 238 250 256 259 259 264 267 256 245 247 237 227 226 223 223 220 218 220 222 220 219 215 208 216 210
239 248 255 280 189 292 292 289 250 237 239 229 217 226 228 226 223 216 213 211 213 221 234 239 247 250 265 262 267 274 276 275 261 243 237 234 228 224 223 220 218 216 218 219 220 219 215 216 214
234 243 243 269 305 263 284 242 185 216 247 223 231 237 246 244 230 212 207 205 208 214 224 233 242 260 269 274 279 284 274 274 270 268 249 235 227 223 219 219 215 214 214 216 219 218 217 217 213
239 221 251 260 258 255 299 276 173 227 246 232 241 237 243 245 228 197 192 189 198 207 209 213 233 264 279 290 286 281 284 277 272 262 262 239 225 223 221 219 220 214 213 215 217 218 221 218 211
245 238 240 246 247 274 193 257 270 179 274 238 223 222 242 264 165 174 174 179 190 186 189 207 247 275 284 290 287 291 295 284 275 264 259 233 226 224 219 221 219 214 216 212 219 219 224 218 213
190 205 216 241 244 232 187 271 275 353 0 320 145 184 198 160 148 157 156 163 169 177 187 216 240 267 285 288 307 305 318 319 285 269 239 225 222 217 214 218 216 211 207 210 213 221 214 203 205
215 205 209 218 206 245 104 243 269 97 122 184 189 207 178 162 159 155 160 166 172 182 188 220 254 283 306 324 2 16 336 321 287 268 209 221 208 211 209 211 202 203 205 207 209 210 210 207 207
201 214 247 220 237 219 151 255 253 98 258 190 202 203 167 169 163 153 162 163 152 132 145 315 305 303 350 69 42 5 9 357 38 146 193 182 183 185 192 195 200 202 204 204 203 202 199 203 213
186 221 244 273 254 279 266 232 235 194 178 174 187 193 185 171 155 156 152 124 106 91 7 345 294 133 67 108 56 38 19 22 64 116 127 144 160 171 169 170 186 189 198 199 203 201 198 199 199
250 211 203 227 264 256 211 260 270 186 193 189 198 190 173 161 155 155 138 121 111 62 332 339 310 176 141 104 57 40 49 59 110 113 117 136 130 146 166 145 148 179 188 185 187 185 195 183 193
193 220 236 293 305 293 270 222 86 170 182 190 165 181 176 167 164 157 136 117 114 114 303 311 248 221 197 156 98 64 78 123 104 120 127 135 130 139 139 149 139 140 171 181 178 193 203 194 205
209 214 213 236 210 229 298 312 131 167 198 207 155 161 174 171 169 154 157 148 146 53 266 267 247 242 212 155 114 94 139 145 119 92 154 143 141 136 134 158 144 142 156 178 180 175 187 195 196
Height
1519 1521 1524 1524 1518 1503 1499 1505 1495 1498 1498 1502 1503 1502 1505 1508 1507 1514 1518 1520 1524 1528 1530 1529 1532 1535 1538 1541 1543 1545 1546 1549 1550 1552 1554 1556 1557 1558 1560 1561 1562 1564 1564 1565 1564 1566 1567 1568 1569
1520 1521 1524 1519 1504 1504 1504 1498 1498 1499 1503 1504 1505 1506 1505 1511 1516 1517 1520 1521 1525 1529 1531 1533 1532 1536 1538 1541 1543 1546 1547 1549 1552 1553 1555 1557 1558 1559 1560 1562 1563 1565 1565 1565 1565 1566 1567 1568 1569
1522 1521 1519 1503 1495 1501 1503 1497 1498 1504 1505 1505 1506 1509 1510 1515 1519 1520 1521 1522 1527 1529 1532 1533 1533 1536 1539 1542 1544 1546 1548 1551 1552 1554 1556 1557 1560 1561 1561 1562 1563 1564 1565 1565 1566 1567 1567 1569 1570
1524 1522 1517 1502 1497 1499 1497 1497 1500 1503 1506 1507 1506 1509 1515 1518 1520 1521 1521 1524 1527 1531 1533 1532 1534 1537 1540 1542 1545 1547 1549 1551 1552 1554 1557 1559 1561 1562 1563 1564 1564 1565 1566 1566 1566 1567 1568 1570 1570
1523 1517 1500 1499 1498 1498 1497 1499 1500 1501 1502 1505 1506 1509 1514 1518 1519 1521 1523 1525 1528 1532 1535 1532 1535 1538 1541 1544 1546 1548 1550 1552 1554 1555 1557 1559 1561 1562 1564 1564 1564 1565 1566 1566 1567 1568 1569 1570 1571
1518 1514 1499 1502 1499 1497 1497 1498 1499 1501 1504 1508 1506 1508 1516 1518 1520 1521 1524 1527 1529 1532 1535 1534 1536 1539 1542 1545 1546 1549 1551 1552 1555 1557 1558 1560 1561 1563 1564 1565 1565 1566 1567 1567 1567 1568 1569 1570 1571
1517 1507 1503 1500 1502 1497 1498 1499 1497 1498 1503 1506 1508 1505 1516 1519 1519 1521 1524 1525 1528 1532 1534 1535 1536 1539 1542 1544 1546 1548 1550 1552 1555 1557 1559 1561 1563 1563 1564 1565 1565 1566 1566 1567 1568 1568 1569 1571 1571
1518 1510 1505 1501 1502 1502 1499 1499 1501 1501 1502 1507 1508 1504 1512 1517 1518 1520 1523 1526 1527 1530 1533 1535 1538 1541 1541 1543 1546 1549 1551 1552 1555 1557 1560 1562 1563 1563 1565 1565 1566 1566 1567 1566 1568 1568 1570 1571 1571
1519 1507 1507 1502 1501 1499 1496 1495 1501 1503 1504 1507 1509 1509 1512 1514 1517 1520 1523 1525 1527 1530 1533 1535 1537 1539 1540 1542 1545 1547 1550 1554 1557 1558 1559 1565 1565 1565 1565 1565 1565 1564 1566 1566 1567 1568 1569 1571 1572
1514 1501 1501 1503 1501 1499 1497 1498 1498 1501 1502 1506 1509 1511 1511 1514 1517 1520 1522 1525 1528 1530 1532 1534 1535 1538 1538 1542 1544 1546 1548 1551 1552 1560 1559 1563 1565 1564 1566 1565 1565 1565 1566 1566 1567 1568 1570 1571 1575
1509 1501 1504 1502 1502 1501 1497 1495 1496 1497 1498 1498 1503 1508 1510 1513 1516 1519 1522 1524 1527 1529 1531 1532 1534 1537 1539 1541 1544 1545 1546 1548 1552 1553 1553 1552 1558 1561 1561 1563 1565 1565 1566 1567 1567 1567 1570 1573 1573
1509 1504 1504 1502 1502 1499 1495 1495 1494 1495 1494 1498 1501 1505 1507 1510 1515 1518 1521 1523 1526 1527 1529 1530 1532 1534 1536 1541 1541 1544 1543 1546 1547 1549 1548 1551 1555 1557 1557 1560 1563 1564 1565 1566 1568 1570 1570 1570 1572
1507 1502 1502 1500 1499 1498 1496 1494 1494 1494 1496 1499 1502 1505 1508 1511 1515 1518 1521 1523 1525 1526 1528 1530 1532 1533 1535 1537 1540 1542 1543 1542 1544 1546 1548 1549 1552 1552 1553 1557 1560 1562 1564 1565 1566 1567 1569 1569 1570
1502 1504 1501 1497 1496 1497 1495 1490 1494 1493 1496 1499 1503 1505 1507 1511 1514 1517 1520 1522 1524 1526 1527 1528 1530 1532 1533 1535 1537 1538 1539 1538 1540 1542 1544 1546 1548 1549 1552 1556 1557 1560 1562 1564 1566 1566 1567 1568 1570
1504 1501 1494 1490 1495 1493 1494 1485 1488 1494 1496 1499 1502 1504 1507 1511 1514 1516 1518 1521 1522 1524 1525 1527 1528 1530 1532 1533 1534 1535 1537 1536 1538 1539 1539 1541 1542 1546 1550 1552 1555 1557 1560 1562 1563 1564 1565 1567 1568
1498 1494 1495 1491 1493 1494 1494 1486 1486 1494 1495 1498 1500 1502 1506 1510 1512 1516 1518 1520 1520 1522 1523 1524 1526 1527 1528 1529 1530 1533 1534 1534 1534 1534 1535 1537 1540 1543 1545 1547 1550 1553 1556 1558 1560 1563 1565 1566 1566
1493 1494 1496 1493 1494 1491 1492 1489 1492 1494 1495 1496 1499 1502 1505 1508 1511 1513 1516 1518 1519 1519 1520 1521 1523 1524 1525 1526 1527 1528 1529 1529 1532 1530 1532 1534 1536 1538 1540 1545 1548 1551 1554 1556 1559 1562 1564 1564 1564
1492 1495 1493 1498 1492 1490 1489 1488 1485 1491 1492 1493 1496 1500 1503 1505 1508 1511 1513 1516 1516 1516 1517 1518 1520 1520 1521 1522 1522 1523 1524 1525 1525 1527 1527 1527 1530 1533 1536 1541 1544 1547 1550 1553 1556 1559 1562 1561 1562
1494 1497 1499 1493 1491 1494 1486 1487 1484 1487 1489 1490 1494 1498 1501 1502 1505 1507 1510 1512 1513 1513 1514 1516 1516 1517 1518 1518 1518 1518 1519 1520 1520 1518 1520 1523 1525 1529 1532 1536 1539 1542 1545 1549 1553 1557 1559 1559 1561
1496 1498 1495 1490 1493 1493 1484 1482 1479 1484 1485 1486 1491 1494 1497 1499 1501 1504 1507 1509 1510 1510 1511 1514 1515 1515 1514 1514 1513 1514 1513 1512 1512 1513 1513 1516 1519 1523 1526 1530 1535 1538 1542 1546 1550 1554 1556 1558 1560
1493 1494 1492 1496 1490 1485 1488 1482 1478 1480 1483 1486 1489 1491 1493 1495 1496 1500 1503 1505 1509 1510 1510 1511 1513 1511 1511 1511 1510 1509 1508 1506 1507 1507 1508 1510 1513 1517 1521 1525 1529 1534 1539 1543 1547 1550 1553 1556 1558
1494 1486 1491 1493 1494 1494 1485 1493 1477 1477 1480 1482 1485 1488 1490 1492 1495 1498 1501 1505 1507 1508 1509 1510 1510 1509 1509 1508 1507 1505 1504 1501 1501 1502 1502 1504 1507 1511 1515 1520 1525 1530 1534 1539 1543 1548 1550 1554 1557
1490 1487 1490 1490 1490 1490 1486 1492 1473 1475 1478 1474 1479 1485 1487 1491 1492 1497 1499 1501 1505 1506 1508 1509 1509 1507 1506 1505 1503 1502 1499 1497 1496 1497 1498 1500 1503 1506 1510 1515 1520 1525 1530 1534 1540 1544 1548 1552 1556
1484 1491 1491 1489 1484 1498 1482 1489 1477 1470 1475 1477 1480 1484 1488 1490 1492 1496 1497 1500 1504 1506 1507 1508 1508 1506 1505 1504 1501 1498 1496 1493 1493 1494 1494 1496 1499 1502 1506 1510 1515 1521 1527 1532 1537 1542 1546 1550 1553
1486 1489 1499 1504 1498 1494 1488 1491 1476 1470 1478 1480 1481 1484 1487 1490 1493 1495 1497 1502 1504 1505 1507 1508 1508 1505 1504 1503 1500 1498 1496 1494 1492 1491 1492 1494 1496 1499 1503 1507 1512 1517 1523 1528 1533 1539 1544 1547 1550
1483 1481 1482 1504 1492 1485 1492 1491 1471 1475 1478 1482 1483 1483 1487 1490 1494 1497 1501 1503 1505 1508 1509 1509 1509 1507 1505 1502 1500 1498 1496 1493 1491 1490 1492 1494 1496 1500 1503 1506 1510 1514 1520 1525 1530 1536 1541 1544 1547
1477 1485 1468 1478 1473 1486 1471 1469 1467 1474 1476 1480 1481 1483 1486 1490 1495 1500 1504 1505 1506 1508 1509 1509 1508 1506 1506 1502 1501 1499 1497 1494 1493 1493 1494 1495 1498 1500 1503 1506 1509 1513 1518 1522 1528 1534 1538 1541 1544
1468 1463 1482 1476 1497 1500 1474 1479 1472 1474 1473 1475 1479 1482 1487 1492 1497 1500 1503 1504 1507 1508 1509 1509 1509 1508 1506 1505 1502 1502 1499 1497 1496 1496 1497 1498 1500 1502 1505 1508 1510 1513 1517 1521 1527 1533 1537 1539 1543
1472 1471 1467 1461 1469 1480 1484 1470 1456 1462 1468 1472 1478 1482 1487 1493 1497 1501 1503 1505 1507 1508 1508 1508 1509 1508 1507 1506 1504 1503 1502 1499 1500 1500 1501 1502 1503 1504 1507 1510 1512 1515 1518 1521 1527 1533 1536 1540 1544
1450 1457 1459 1471 1478 1467 1472 1464 1460 1465 1470 1474 1478 1485 1487 1491 1497 1500 1503 1506 1508 1508 1508 1509 1509 1508 1507 1506 1505 1504 1504 1502 1502 1504 1504 1505 1506 1508 1509 1512 1515 1517 1520 1524 1527 1531 1534 1539 1541